Retour au catalogue

SL-14 DEB

ActifPO
NORAD 25227·DEBRIS·🇷🇺 Russia

Lancé Aug 18, 1987 depuis Plesetsk Cosmodrome

Loading…

Prochains Passages (prochaines 24 heures)

TLE

FraisSource: Space-Track

Époque: Sep 13, 2026, 20:31 UTC

1 25227U 87068BE  26256.85515528  .00007260  00000-0  16904-2 0  9994
2 25227  82.5179 200.0244 0014856  26.0546 334.1398 14.54688780469844

Suivez SL-14 DEB en temps réel avec AllMySat

Download on the App Store